Minot AFB, ND

5:38 PM CDT on April 29, 2017 (GMT -0500)
Minot Air Force Base

Weather History for KMIB - December, 2012

Change the Weather History Date:

Friday, December 7, 2012

  Actual Average Record
Temperature  
Mean Temperature 11 °F -  
Max Temperature 17 °F 27 °F 50 °F (2015)
Min Temperature 5 °F 11 °F -20 °F (2013)
Degree Days  
Heating Degree Days 54    
Moisture  
Dew Point 5 °F    
Average Humidity 82    
Maximum Humidity 92    
Minimum Humidity 68    
Precipitation  
Precipitation 0.00 in - - ()
Sea Level Pressure  
Sea Level Pressure 30.08 in    
Wind  
Wind Speed 8 mph (ENE)    
Max Wind Speed 12 mph    
Max Gust Speed -    
Visibility 7 miles    
Events Snow    
Averages and records for this station are not official NWS values.
T = Trace of Precipitation, MM = Missing Value Source: NWS Daily Summary

Daily Weather History Graph

Daily Weather History Graph

Search for Another Location

Airport or City:

Trip Planner

Search our weather history database for the weather conditions in past years. The results will help you decide how hot, cold, wet, or windy it might be!

Date:

Astronomy

Dec. 07, 2012 Rise Set
Actual Time 8:23 AM CST 4:50 PM CST
Civil Twilight 7:47 AM CST 5:27 PM CST
Nautical Twilight 7:07 AM CST 6:06 PM CST
Astronomical Twilight 6:29 AM CST 6:44 PM CST
Moon 1:17 AM CST (12/7) 1:12 PM CST (12/7)
Length of Visible Light 9h 40m
Length of Day
8h 27m
Last Quarter, 38% of the Moon is Illuminated
Dec 7
Last Quarter
Dec 13
New
Dec 19
First Quarter
Dec 28
Full
Jan 4
Last Quarter

Hourly Weather History & Observations

Time (CST) Temp. Windchill Dew Point Humidity Pressure Visibility Wind Dir Wind Speed Gust Speed Precip Events Conditions
12:55 AM 17.1 °F 8.7 °F 14.4 °F 89% 30.06 in 10.0 mi Variable 5.8 mph - N/A   Overcast
1:55 AM 14.9 °F 3.1 °F 11.7 °F 87% 30.06 in 10.0 mi NE 9.2 mph - N/A   Overcast
2:55 AM 12.7 °F 2.4 °F 7.5 °F 80% 30.08 in 10.0 mi NNE 6.9 mph - N/A   Overcast
3:55 AM 11.1 °F 0.4 °F 5.5 °F 78% 30.09 in 10.0 mi NNE 6.9 mph - N/A   Overcast
3:56 AM 10.4 °F -1.5 °F 5.0 °F 79% 30.09 in 10.0 mi NNE 8.1 mph - N/A   Overcast
4:55 AM 9.7 °F -1.3 °F 4.1 °F 78% 30.10 in 10.0 mi NNE 6.9 mph - N/A   Overcast
5:19 AM 8.6 °F -2.6 °F 3.2 °F 79% 30.10 in 10.0 mi NNE 6.9 mph - N/A   Overcast
5:20 AM 8.6 °F -3.7 °F 3.2 °F 79% 30.10 in 10.0 mi NNE 8.1 mph - N/A   Overcast
5:29 AM 8.6 °F -2.6 °F 3.2 °F 79% 30.11 in 10.0 mi North 6.9 mph - N/A   Overcast
5:55 AM 8.1 °F -3.2 °F 2.7 °F 79% 30.12 in 10.0 mi NNE 6.9 mph - N/A   Overcast
6:55 AM 6.8 °F -6.9 °F 1.6 °F 79% 30.12 in 10.0 mi NE 9.2 mph - N/A   Scattered Clouds
7:55 AM 5.7 °F -7.2 °F 0.9 °F 80% 30.14 in 10.0 mi NNE 8.1 mph - N/A   Overcast
8:55 AM 6.3 °F -5.4 °F 1.4 °F 80% 30.15 in 10.0 mi NNE 6.9 mph - N/A   Overcast
9:55 AM 6.8 °F -4.8 °F 2.1 °F 81% 30.17 in 10.0 mi NNE 6.9 mph - N/A   Overcast
10:55 AM 8.2 °F -3.0 °F 2.7 °F 78% 30.17 in 10.0 mi NE 6.9 mph - N/A   Overcast
11:55 AM 9.5 °F -2.6 °F 3.0 °F 75% 30.15 in 10.0 mi NNE 8.1 mph - N/A   Overcast
12:55 PM 10.4 °F -0.4 °F 3.4 °F 73% 30.14 in 10.0 mi NNE 6.9 mph - N/A   Overcast
1:55 PM 11.7 °F 1.1 °F 3.0 °F 68% 30.13 in 10.0 mi NE 6.9 mph - N/A   Overcast
2:55 PM 10.8 °F 0.0 °F 3.2 °F 72% 30.12 in 10.0 mi NE 6.9 mph - N/A   Clear
3:55 PM 10.2 °F 0.6 °F 2.7 °F 72% 30.12 in 10.0 mi East 5.8 mph - N/A   Mostly Cloudy
4:55 PM 8.8 °F -1.1 °F 2.8 °F 77% 30.13 in 10.0 mi NE 5.8 mph - N/A   Clear
5:55 PM 7.7 °F -2.4 °F 2.3 °F 79% 30.13 in 10.0 mi NE 5.8 mph - N/A   Clear
6:55 PM 7.3 °F -2.8 °F 2.7 °F 81% 30.13 in 10.0 mi ENE 5.8 mph - N/A   Clear
7:55 PM 6.8 °F -2.0 °F 2.7 °F 83% 30.11 in 10.0 mi East 4.6 mph - N/A   Partly Cloudy
8:55 PM 7.7 °F -6.6 °F 4.1 °F 85% 30.10 in 10.0 mi ESE 10.4 mph - N/A   Clear
9:11 PM 8.6 °F -4.7 °F 5.0 °F 85% 30.09 in 10.0 mi ESE 9.2 mph - N/A   Mostly Cloudy
9:52 PM 8.6 °F -5.5 °F 5.0 °F 85% 30.07 in 10.0 mi ESE 10.4 mph - N/A   Mostly Cloudy
9:55 PM 8.2 °F -6.8 °F 4.8 °F 86% 30.06 in 10.0 mi ESE 11.5 mph - N/A   Mostly Cloudy
9:56 PM 8.6 °F -6.3 °F 5.0 °F 85% 30.06 in 10.0 mi ESE 11.5 mph - N/A   Mostly Cloudy
10:20 PM 8.6 °F -4.7 °F 5.0 °F 85% 30.04 in 10.0 mi ESE 9.2 mph - N/A   Overcast
10:23 PM 8.6 °F -4.7 °F 5.0 °F 85% 30.04 in 10.0 mi East 9.2 mph - N/A   Overcast
10:49 PM 8.6 °F -6.3 °F 5.0 °F 85% 30.03 in 8.0 mi East 11.5 mph - N/A   Overcast
10:55 PM 9.1 °F -4.9 °F 6.1 °F 87% 30.03 in 5.0 mi East 10.4 mph - 0.00 in Snow Light Snow
10:58 PM 8.6 °F -4.7 °F 6.8 °F 92% 30.02 in 3.0 mi East 9.2 mph - N/A Snow Light Snow
11:01 PM 8.6 °F -6.3 °F 6.8 °F 92% 30.02 in 2.5 mi East 11.5 mph - N/A Snow Light Snow
11:04 PM 8.6 °F -5.5 °F 6.8 °F 92% 30.02 in 1.8 mi East 10.4 mph - N/A Snow Light Snow
11:06 PM 8.6 °F -5.5 °F 6.8 °F 92% 30.02 in 1.5 mi East 10.4 mph - N/A Snow Light Snow
11:18 PM 10.4 °F -2.4 °F 6.8 °F 85% 30.02 in 2.0 mi East 9.2 mph - N/A Snow Light Snow
11:26 PM 10.4 °F -1.5 °F 6.8 °F 85% 30.02 in 1.8 mi East 8.1 mph - N/A Snow Light Snow
11:29 PM 10.4 °F -3.3 °F 6.8 °F 85% 30.01 in 1.2 mi East 10.4 mph - N/A Snow Light Snow
11:31 PM 10.4 °F -4.1 °F 6.8 °F 85% 30.01 in 1.0 mi East 11.5 mph - N/A Snow Light Snow
11:35 PM 10.4 °F -3.3 °F 6.8 °F 85% 30.01 in 0.8 mi East 10.4 mph - N/A Snow Light Snow
11:36 PM 10.4 °F -4.1 °F 6.8 °F 85% 30.01 in 0.8 mi East 11.5 mph - N/A Snow Light Snow
11:37 PM 10.4 °F -3.3 °F 6.8 °F 85% 30.01 in 0.8 mi East 10.4 mph - N/A Snow Light Snow
11:49 PM 10.4 °F -1.5 °F 6.8 °F 85% 30.01 in 0.8 mi East 8.1 mph - N/A Snow Light Snow
11:55 PM 9.9 °F -4.7 °F 6.8 °F 87% 30.01 in 0.8 mi East 11.5 mph - 0.00 in Snow Light Snow